Voltar ao catálogo

STARLINK-5310

AtivoComunicaçõesVLEO
NORAD 55272·PAYLOAD·🇺🇸 United States

Lançado Jan 19, 2023 de Vandenberg Space Force Base

Loading…

Próximas Passagens (próximas 24 horas)

TLE

AtualizadoSource: CelesTrak SupGP

Época: Sep 15, 2026, 03:02 UTC

1 55272C 23010D   26258.12687500 -.00012665  00000+0 -10612-2 0  2580
2 55272  69.9992 286.8268 0003042 268.9859  18.1271 14.98340998    19

Acompanhe STARLINK-5310 em tempo real com AllMySat

Download on the App Store